Location: Fougaron
(42.9873°N, 0.9315°E)
Time: 16:26:31
(UTC+00:00)

Daily predictions for brighter satellites

Satellite Brightness Start Highest point End
(mag) Time Altitude Azimuth Time Altitude Azimuth Time Altitude Azimuth
NOSS 2-1 (E) 4.2 17:29:12 10° NNW 17:33:34 50° NE 17:39:36 10° SE
SL-16 R/B 3.2 17:30:46 10° SSE 17:35:25 27° ESE 17:40:04 10° NE
H-2A R/B 4.3 17:33:18 10° SSW 17:37:48 30° W 17:42:27 10° NNW
ARGOS 4.0 17:36:14 10° S 17:41:29 57° W 17:46:47 10° NNW
Lacrosse 5 3.1 17:41:36 10° S 17:45:43 25° ESE 17:49:51 10° ENE
Cosmos 2369 4.2 17:41:35 10° SW 17:47:10 64° WNW 17:52:50 10° NNE
BlueWalker 3 3.3 17:45:14 10° W 17:48:43 31° NNW 17:52:15 10° NE
Cosmos 1140 Rocket 3.5 17:43:34 10° SSW 17:48:44 74° ESE 17:53:54 10° NNE
Cosmos 1825 3.8 17:48:04 10° ESE 17:50:12 15° E 17:52:21 10° NE
Cosmos 1408 2.9 17:47:41 10° SSE 17:50:50 37° E 17:54:01 10° NNE
NOAA 6 4.1 17:45:45 10° SSE 17:50:53 87° ENE 17:56:06 10° NNW
Cosmos 1980 Rocket 2.8 17:45:40 10° SW 17:51:14 59° WNW 17:56:53 10° NNE
Cosmos 1867 4.4 17:46:14 10° NW 17:51:35 58° WSW 17:56:53 10° SSE
Radarsat Rocket 4.0 17:46:34 10° SSE 17:52:29 81° ENE 17:59:00 10° NNW
Cosmos 1655 Rocket 4.0 17:46:57 10° N 17:53:13 67° E 17:59:23 10° SSE
SMAP 4.4 17:48:48 10° S 17:53:15 45° W 17:57:44 10° NNW
Cosmos 1023 Rocket 4.5 17:51:55 10° SSW 17:57:06 89° WNW 18:02:15 10° NNE
COSMO-SKYMED 1 2.6 17:53:13 10° NNE 17:57:33 63° ESE 18:01:51 10° S
SL-08 R/B 4.0 17:54:44 10° N 17:59:37 62° WNW 18:04:29 10° SSW
Cosmos 2228 3.2 17:56:53 10° N 18:00:58 47° ENE 18:05:02 10° SSE
Cosmos 1633 4.2 18:02:35 10° ESE 18:04:00 14° E 18:04:00 14° E
Tiangong 0.8 18:05:51 10° WSW 18:07:35 14° SSW 18:09:19 10° S
Cosmos 2263 Rocket 2.4 18:03:28 10° NNW 18:09:02 74° WSW 18:14:34 10° SSE
CZ-4 R/B 2.6 18:06:36 10° ESE 18:09:44 21° ENE 18:12:50 10° NNE
PSLV R/B 4.0 18:11:38 10° SE 18:15:02 39° ENE 18:18:29 10° N
Cosmos 1328 3.8 18:11:45 10° S 18:15:44 89° W 18:19:43 10° N
Okean O Rocket 2.6 18:13:25 10° ESE 18:16:57 24° ENE 18:20:30 10° NNE
Meteor 1-11 4.5 18:11:26 10° SSE 18:17:00 50° E 18:22:36 10° NNE
Cosmos 2266 Rocket 4.4 18:13:09 10° NNW 18:19:24 68° W 18:25:31 10° S
Cosmos 724 4.5 18:13:43 10° SW 18:19:37 77° WNW 18:25:43 10° NNE
Cosmos 1726 Rocket 4.2 18:16:10 10° N 18:20:04 32° ENE 18:23:56 10° SE
Lacrosse 5 rocket 3.1 18:19:42 10° N 18:21:24 13° NNE 18:21:53 12° NNE
NOSS 2-1 (C) 4.5 18:16:54 10° NW 18:21:30 67° SW 18:28:04 10° SSE
ISS -3.3 18:19:05 10° NW 18:22:21 45° NNE 18:23:39 29° E
Cosmos 1184 Rocket 3.1 18:20:56 10° NNW 18:23:14 45° W 18:25:30 10° S
RESURS DK-1 4.1 18:23:50 10° N 18:25:54 17° NE 18:25:54 17° NE
Cosmos 1954 Rocket 4.0 18:22:21 10° S 18:27:30 58° ESE 18:32:38 10° NNE
CZ-4B DEB 4.2 18:23:47 10° SSE 18:29:14 86° WSW 18:34:44 10° NNW
Cosmos 1553 Rocket 4.3 18:24:36 10° SSE 18:30:11 40° E 18:35:51 10° NNE
COSMOS 2455 4.4 18:28:10 10° WSW 18:33:31 32° NW 18:38:54 10° NNE
CZ-4C R/B 4.0 18:31:44 10° N 18:35:32 53° WNW 18:39:07 10° SSW
CZ-4B R/B 3.2 18:30:29 10° SSE 18:35:40 57° ENE 18:40:59 10° N
Cosmos 1844 Rocket 2.9 18:35:29 10° NNW 18:40:48 44° ENE 18:43:47 24° ESE
Cosmos 2227 4.4 18:37:14 10° NNW 18:43:00 74° WSW 18:48:44 10° SSE
Timation 2 Rocket 4.5 18:37:09 10° NNW 18:43:18 63° WSW 18:49:42 10° S
Feng Yun 1-1 Rocket 4.4 18:39:11 10° SE 18:44:30 46° ENE 18:49:43 10° N
IRIDIUM 114 4.4 18:40:21 10° N 18:45:26 50° E 18:50:29 10° SSE
Cosmos 1763 Rocket 3.3 18:40:33 10° NNW 18:45:44 68° ENE 18:50:49 10° SSE
Cosmos 1844 4.1 18:41:35 10° NNW 18:47:08 43° ENE 18:49:24 30° ESE
Spot 1 4.1 18:47:34 40° ENE 18:48:28 48° E 18:52:23 10° S
Cosmos 2058 Rocket 3.9 18:45:25 10° N 18:48:18 31° NE 18:48:18 31° NE
Cosmos 2333 Rocket 2.7 18:49:18 10° S 18:54:23 36° ESE 18:54:33 36° ESE
IRIDIUM 103 4.3 18:49:26 10° N 18:54:38 61° E 18:59:46 10° SSE
MINOTAUR 4 R/B 3.9 18:53:04 28° N 18:54:45 79° WNW 18:58:09 10° SSW
Cosmos 841 Rocket 4.3 18:50:34 10° N 18:54:41 32° NE 18:54:41 32° NE
Cosmos 2360 Rocket 2.2 18:51:02 10° S 18:56:32 58° ESE 18:59:03 32° NE
ATLAS 2AS CENTAUR R/B 2.6 18:49:47 10° NW 18:56:49 77° NE 19:01:41 20° SE
YAOGAN 1 2.7 18:53:21 10° S 18:57:39 73° WSW 19:01:59 10° NNW
Cosmos 2219 Rocket 3.6 18:54:13 10° SSE 18:56:23 20° SE 18:56:23 20° SE
S3M 4.2 18:57:39 10° SSE 19:03:39 45° E 19:09:40 10° NNE
SL-4 R/B 3.5 19:00:53 10° NW 19:03:34 21° N 19:03:34 21° N
Nadezhda 2 Rocket 4.4 18:57:31 10° N 19:03:46 88° W 19:09:53 10° S
Cosmos 1892 4.2 19:01:11 10° SW 19:04:37 36° WNW 19:08:06 10° N
Cosmos 2322 Rocket 2.2 19:01:00 10° SSW 19:06:36 81° WNW 19:10:36 20° NNE
Cosmos 540 Rocket 3.3 19:03:32 10° NNW 19:08:42 69° ENE 19:10:12 45° SE
ATLAS CENTAUR R/B 4.0 19:05:28 10° W 19:08:45 19° NW 19:11:58 10° N
Cosmos 676 Rocket 4.3 19:04:02 10° SSW 19:09:18 69° WNW 19:13:41 15° NNE
IRIDIUM 106 4.2 19:07:41 10° N 19:12:56 89° E 19:18:09 10° S
Cosmos 1461 2.8 19:10:48 10° SSW 19:15:01 88° NW 19:15:09 84° NNE
Cosmos 2333 4.3 19:12:59 10° S 19:17:54 52° SE 19:17:54 52° SE
BREEZE M DEB (TANK) 4.0 19:15:46 10° WNW 19:18:42 30° SW 19:18:42 30° SW
SL-16 R/B 3.1 19:13:47 10° SW 19:19:13 46° WNW 19:24:12 12° NNE
Cosmos 1825 3.8 19:21:41 10° SW 19:25:03 33° WNW 19:27:13 18° NNW
Meteor 1-27 4.3 19:21:48 10° NNW 19:27:38 81° W 19:33:20 10° S
BlueWalker 3 4.2 19:25:31 10° NW 19:27:27 17° NNW 19:27:27 17° NNW
Lacrosse 5 2.2 19:23:17 10° WSW 19:28:21 61° NW 19:29:05 55° N
CSL-04 Debris 4.2 19:29:17 62° NNE 19:29:17 62° NNE 19:33:59 10° N
CSL-04 Rocket 4.3 19:39:31 42° N 19:39:31 42° N 19:43:02 10° N
CZ-4 R/B 3.0 19:40:38 10° SSW 19:44:24 34° W 19:48:09 10° NNW
BREEZE-M DEB (TANK) 3.3 19:32:28 10° WSW 19:45:13 80° NNW 19:45:22 78° N
Cosmos 1745 Rocket 4.0 19:46:49 10° N 19:53:04 75° W 19:55:06 45° SSW
Okean O Rocket 3.2 19:49:12 10° SSW 19:53:07 32° W 19:57:05 10° NNW
BREEZE-M DEB (TANK) 3.7 19:53:03 10° WNW 19:57:20 84° NNE 19:57:31 82° NE
ISS -0.4 19:56:05 10° WNW 19:56:34 13° W 19:56:34 13° W
Atlas Centaur 2 4.3 20:15:02 10° SW 20:20:08 27° S 20:20:08 27° S
Cosmos 1844 Rocket 4.4 20:19:48 10° NW 20:24:26 27° WSW 20:25:34 26° WSW
Cosmos 2333 Rocket 3.9 20:33:27 10° WSW 20:36:39 28° W 20:36:39 28° W
Cosmos 2360 Rocket 4.1 20:36:24 10° WSW 20:40:54 24° NW 20:40:54 24° NW
Cosmos 2219 Rocket 4.5 20:37:04 10° SW 20:38:11 16° SW 20:38:11 16° SW
